Location: Summit Observatory
(39.5293°N, 75.7290°W)
Time: 01:19:20
(UTC-04:00)

Amateur Radio Satellites - All Passes

Search period start: 19 April 2014 00:49
Search period end: 20 April 2014 00:49
Location: Summit Observatory, 39.5293°N, 75.7290°W

Satellite Date Start Highest point End Downlink Frequencies (MHz)
Time Altitude Azimuth
Sapphire 19 Apr 00:52:37 00:57:54 58° 114° (ESE) 01:03:13 437.095 MHz 1200 baud AX-25 AFSK
SO-50 19 Apr 00:56:03 01:00:43 74° 57° (ENE) 01:05:25 436.795 FM
Oscar 19 19 Apr 01:19:46 01:21:06 11° 89° (E) 01:22:26 437.125 CW, 437.150 USB
Oscar 16 19 Apr 01:26:36 01:29:25 15° 91° (E) 01:32:13 437.025 USB, Beacon 2401.1428
PCSat 19 Apr 01:37:36 01:42:54 56° 302° (WNW) 01:48:15 145.825 MHz
OPAL 19 Apr 01:37:51 01:41:11 18° 61° (ENE) 01:44:32 ?
UOSAT-12 19 Apr 01:43:52 01:46:58 17° 42° (NE) 01:50:04 437.025 FM, 437.400 FM
Uribyol 2 19 Apr 02:00:22 02:03:27 16° 92° (E) 02:06:30 436.500 FM
KITSAT 1 19 Apr 02:08:54 02:15:26 28° 105° (ESE) 02:21:58 435.175 FM
Oscar 10/S400 19 Apr 02:29:14 02:46:53 30° 134° (SE) 03:33:58 145.825 - 145.975 CW/USB, Beacon 145.810 USB
Sapphire 19 Apr 02:37:33 02:41:42 22° 312° (NW) 02:45:53 437.095 MHz 1200 baud AX-25 AFSK
AO-27 19 Apr 02:38:56 02:43:41 36° 98° (E) 02:48:26 436.795 MHz FM
SO-50 19 Apr 02:38:59 02:40:41 12° 253° (WSW) 02:42:24 436.795 FM
ITAMSAT 1 19 Apr 02:49:40 02:54:38 45° 99° (E) 02:59:34 435.822 SSB
Oscar 19 19 Apr 02:55:48 03:01:02 82° 285° (WNW) 03:06:13 437.125 CW, 437.150 USB
AO-Echo 19 Apr 03:03:10 03:07:48 48° 99° (E) 03:12:19 ?
Oscar 16 19 Apr 03:04:02 03:09:11 64° 287° (WNW) 03:14:19 437.025 USB, Beacon 2401.1428
OPAL 19 Apr 03:14:41 03:19:35 56° 257° (WSW) 03:24:36 ?
TMSAT-1 19 Apr 03:17:10 03:20:45 18° 92° (E) 03:24:19 436.925 FM
UOSAT-12 19 Apr 03:22:55 03:27:37 70° 241° (WSW) 03:32:16 437.025 FM, 437.400 FM
PCSat 19 Apr 03:26:52 03:27:33 10° 323° (NW) 03:28:15 145.825 MHz
AO-40 19 Apr 03:29:17 08:56:51 37° 182° (S) 14:21:11 Beacon 2401.320
Uribyol 2 19 Apr 03:38:12 03:43:17 59° 287° (WNW) 03:48:22 436.500 FM
AO-7 19 Apr 04:01:38 04:06:16 16° 90° (E) 04:10:53 29.400 - 29.500 MHz
KITSAT 1 19 Apr 04:02:11 04:10:13 64° 304° (WNW) 04:18:18 435.175 FM
Gurwin Techsat 1B 19 Apr 04:07:06 04:12:26 78° 103° (ESE) 04:17:43 435.225 FM
AO-27 19 Apr 04:18:46 04:23:02 27° 294° (WNW) 04:27:17 436.795 MHz FM
ITAMSAT 1 19 Apr 04:29:56 04:33:48 22° 295° (WNW) 04:37:40 435.822 SSB
JAS-1B 19 Apr 04:34:59 04:40:24 44° 99° (E) 04:46:01 435.800 - 435.900 CW/SSB
Oscar 19 19 Apr 04:38:53 04:39:30 10° 302° (WNW) 04:40:08 437.125 CW, 437.150 USB
AO-Echo 19 Apr 04:43:03 04:46:10 18° 296° (WNW) 04:49:15 ?
TMSAT-1 19 Apr 04:55:50 05:00:58 53° 288° (WNW) 05:06:05 436.925 FM
Uosat F 19 Apr 04:59:26 05:04:25 63° 102° (ESE) 05:09:21 435.120 FM
Gurwin Techsat 1B 19 Apr 05:49:08 05:51:42 14° 300° (WNW) 05:54:17 435.225 FM
AO-7 19 Apr 05:51:43 06:00:05 86° 108° (ESE) 06:08:26 29.400 - 29.500 MHz
STRAND 1 19 Apr 05:53:02 05:56:58 23° 65° (ENE) 06:00:53 ?
KITSAT 1 19 Apr 06:02:08 06:07:22 18° 327° (NNW) 06:12:38 435.175 FM
RS-15 19 Apr 06:09:04 06:18:54 36° 106° (ESE) 06:28:24 29.354 - 29.394 USB, Beacon 29.352 USB
JAS-1B 19 Apr 06:26:30 06:30:51 23° 296° (WNW) 06:35:15 435.800 - 435.900 CW/SSB
Hamsat 19 Apr 06:29:05 06:32:28 22° 94° (E) 06:35:50 145.90 MHz
MaSat-1 19 Apr 06:34:33 06:36:05 13° 59° (ENE) 06:37:43 437.345 MHz
Uosat F 19 Apr 06:39:48 06:42:40 16° 298° (WNW) 06:45:32 435.120 FM
JAS-2 19 Apr 06:46:07 06:48:10 12° 91° (E) 06:50:15 435.800 - 435.900 CW/SSB, 435.910 FM
STRAND 1 19 Apr 07:31:02 07:35:52 42° 261° (W) 07:40:43 ?
AO-7 19 Apr 07:46:00 07:51:52 22° 307° (NW) 07:57:46 29.400 - 29.500 MHz
Hamsat 19 Apr 08:04:38 08:08:28 31° 289° (WNW) 08:12:19 145.90 MHz
SO-67 19 Apr 08:10:30 08:13:58 58° 100° (E) 08:17:25 435.3500 MHz FM
MaSat-1 19 Apr 08:11:46 08:14:28 28° 248° (WSW) 08:17:36 437.345 MHz
RS-15 19 Apr 08:19:22 08:30:34 64° 307° (NW) 08:41:29 29.354 - 29.394 USB, Beacon 29.352 USB
JAS-2 19 Apr 08:28:19 08:33:42 80° 285° (WNW) 08:39:39 435.800 - 435.900 CW/SSB, 435.910 FM
PCSat 19 Apr 08:44:21 08:47:39 16° 44° (NE) 08:50:57 145.825 MHz
HO-68 19 Apr 08:52:13 08:56:29 16° 91° (E) 09:00:44 435.675 MHz FM
Oscar 11 19 Apr 09:40:48 09:42:23 12° 91° (E) 09:43:57 145.825 FM, Beacon 2401.500 USB
Sapphire 19 Apr 09:41:37 09:46:41 38° 54° (NE) 09:51:42 437.095 MHz 1200 baud AX-25 AFSK
KITSAT 1 19 Apr 10:02:15 10:06:56 16° 30° (NNE) 10:11:36 435.175 FM
PANSAT 19 Apr 10:18:25 10:20:45 15° 176° (S) 10:23:04 not established
PCSat 19 Apr 10:26:21 10:31:48 86° 243° (WSW) 10:37:12 145.825 MHz
RS-15 19 Apr 10:37:22 10:45:39 23° 335° (NNW) 10:53:52 29.354 - 29.394 USB, Beacon 29.352 USB
HO-68 19 Apr 10:37:43 10:44:56 84° 287° (WNW) 10:52:07 435.675 MHz FM
Saudisat 1A 19 Apr 10:54:31 10:58:34 35° 115° (ESE) 11:02:38 436.775 MHz
FUNcube-1 19 Apr 11:04:06 11:07:56 32° 97° (E) 11:11:49 145.950 - 145.970 MHz USB
Oscar 11 19 Apr 11:14:38 11:18:55 58° 286° (WNW) 11:23:12 145.825 FM, Beacon 2401.500 USB
Sapphire 19 Apr 11:25:20 11:29:56 29° 252° (WSW) 11:34:30 437.095 MHz 1200 baud AX-25 AFSK
KITSAT 1 19 Apr 11:56:26 12:04:23 55° 54° (NE) 12:12:15 435.175 FM
PANSAT 19 Apr 11:58:16 12:00:17 14° 189° (S) 12:02:19 not established
HO-68 19 Apr 12:27:30 12:31:35 16° 306° (NW) 12:35:40 435.675 MHz FM
Saudisat 1A 19 Apr 12:34:28 12:38:13 26° 312° (NW) 12:41:59 436.775 MHz
Oscar 19 19 Apr 12:35:04 12:38:10 16° 62° (ENE) 12:41:16 437.125 CW, 437.150 USB
FUNcube-1 19 Apr 12:40:58 12:44:11 21° 292° (WNW) 12:47:26 145.950 - 145.970 MHz USB
Oscar 16 19 Apr 12:42:35 12:46:18 21° 64° (ENE) 12:50:02 437.025 USB, Beacon 2401.1428
RS-15 19 Apr 12:56:36 13:03:44 19° 13° (NNE) 13:10:53 29.354 - 29.394 USB, Beacon 29.352 USB
Uribyol 2 19 Apr 13:17:15 13:21:14 23° 65° (ENE) 13:25:12 436.500 FM
Gurwin Techsat 1B 19 Apr 13:50:37 13:53:21 14° 61° (ENE) 13:56:05 435.225 FM
KITSAT 1 19 Apr 13:52:25 13:59:23 33° 253° (WSW) 14:06:19 435.175 FM
AO-27 19 Apr 13:56:09 14:01:10 51° 71° (ENE) 14:06:11 436.795 MHz FM
ITAMSAT 1 19 Apr 14:06:46 14:11:53 63° 73° (ENE) 14:17:00 435.822 SSB
Oscar 19 19 Apr 14:11:53 14:16:58 62° 259° (WSW) 14:22:06 437.125 CW, 437.150 USB
AO-Echo 19 Apr 14:14:40 14:19:50 60° 73° (ENE) 14:24:53 ?
Oscar 16 19 Apr 14:20:21 14:25:17 48° 261° (W) 14:30:16 437.025 USB, Beacon 2401.1428
TMSAT-1 19 Apr 14:36:55 14:41:17 27° 66° (ENE) 14:45:40 436.925 FM
Uribyol 2 19 Apr 14:55:33 15:00:25 42° 261° (W) 15:05:20 436.500 FM
AO-7 19 Apr 14:59:42 15:05:49 24° 54° (NE) 15:11:56 29.400 - 29.500 MHz
RS-15 19 Apr 15:09:46 15:20:06 44° 45° (NE) 15:30:34 29.354 - 29.394 USB, Beacon 29.352 USB
SO-50 19 Apr 15:10:57 15:14:47 28° 113° (ESE) 15:18:38 436.795 FM
JAS-1B 19 Apr 15:18:07 15:25:35 42° 69° (ENE) 15:31:54 435.800 - 435.900 CW/SSB
OPAL 19 Apr 15:25:25 15:30:21 41° 101° (E) 15:35:15 ?
Gurwin Techsat 1B 19 Apr 15:27:21 15:32:39 75° 257° (WSW) 15:37:59 435.225 FM
AO-27 19 Apr 15:37:24 15:40:57 18° 267° (W) 15:44:30 436.795 MHz FM
ISS 19 Apr 15:48:13 15:51:34 85° 324° (NW) 15:54:55 145.800 FM
ITAMSAT 1 19 Apr 15:48:58 15:51:47 15° 269° (W) 15:54:37 435.822 SSB
AO-Echo 19 Apr 15:55:47 15:58:55 16° 268° (W) 16:02:01 ?
Uosat F 19 Apr 16:11:45 16:16:46 79° 75° (ENE) 16:21:49 435.120 FM
TMSAT-1 19 Apr 16:16:10 16:21:01 37° 263° (W) 16:25:55 436.925 FM
AO-7 19 Apr 16:49:26 16:57:43 80° 253° (WSW) 17:06:03 29.400 - 29.500 MHz
SO-50 19 Apr 16:51:17 16:55:16 31° 310° (NW) 16:59:17 436.795 FM
OPAL 19 Apr 17:04:48 17:08:58 25° 297° (WNW) 17:13:08 ?
JAS-1B 19 Apr 17:08:38 17:16:08 37° 261° (W) 17:22:35 435.800 - 435.900 CW/SSB
RS-15 19 Apr 17:22:11 17:32:46 58° 247° (WSW) 17:43:40 29.354 - 29.394 USB, Beacon 29.352 USB
Hamsat 19 Apr 17:23:02 17:25:19 14° 65° (ENE) 17:27:37 145.90 MHz
ISS 19 Apr 17:26:25 17:28:44 17° 340° (NNW) 17:31:03 145.800 FM
UOSAT-12 19 Apr 17:33:19 17:37:36 43° 116° (ESE) 17:42:00 437.025 FM, 437.400 FM
Uosat F 19 Apr 17:54:54 17:56:07 11° 270° (W) 17:57:19 435.120 FM
JAS-2 19 Apr 18:40:16 18:45:34 37° 70° (ENE) 18:50:28 435.800 - 435.900 CW/SSB, 435.910 FM
SO-67 19 Apr 18:44:22 18:46:45 18° 69° (ENE) 18:49:08 435.3500 MHz FM
AO-7 19 Apr 18:47:47 18:51:40 14° 271° (W) 18:55:34 29.400 - 29.500 MHz
Hamsat 19 Apr 18:56:51 19:00:53 47° 261° (W) 19:04:59 145.90 MHz
ISS 19 Apr 19:05:50 19:06:34 11° 1° (N) 19:07:18 145.800 FM
UOSAT-12 19 Apr 19:14:17 19:17:57 23° 314° (NW) 19:21:41 437.025 FM, 437.400 FM
Saudisat 1A 19 Apr 19:22:19 19:25:56 24° 47° (NE) 19:29:30 436.775 MHz
HO-68 19 Apr 19:22:36 19:25:26 13° 51° (NE) 19:28:16 435.675 MHz FM
STRAND 1 19 Apr 19:42:13 19:47:19 70° 102° (ESE) 19:52:23 ?
SO-67 19 Apr 20:16:50 20:19:43 24° 264° (W) 20:22:38 435.3500 MHz FM
JAS-2 19 Apr 20:25:49 20:30:43 27° 263° (W) 20:35:18 435.800 - 435.900 CW/SSB, 435.910 FM
ISS 19 Apr 20:41:57 20:44:23 18° 21° (NNE) 20:46:49 145.800 FM
Saudisat 1A 19 Apr 21:01:34 21:05:38 37° 245° (WSW) 21:09:38 436.775 MHz
HO-68 19 Apr 21:04:46 21:11:49 68° 70° (ENE) 21:18:55 435.675 MHz FM
STRAND 1 19 Apr 21:23:15 21:25:54 14° 299° (WNW) 21:28:33 ?
FUNcube-1 19 Apr 22:00:33 22:03:53 23° 69° (ENE) 22:07:11 145.950 - 145.970 MHz USB
Oscar 11 19 Apr 22:08:33 22:12:51 84° 257° (WSW) 22:17:12 145.825 FM, Beacon 2401.500 USB
MaSat-1 19 Apr 22:14:32 22:17:16 35° 297° (WNW) 22:19:44 437.345 MHz
ISS 19 Apr 22:18:08 22:21:30 84° 219° (SW) 22:24:51 145.800 FM
HO-68 19 Apr 22:54:52 23:00:02 21° 267° (W) 23:05:15 435.675 MHz FM
PCSat 19 Apr 23:27:10 23:29:40 13° 103° (ESE) 23:32:10 145.825 MHz
FUNcube-1 19 Apr 23:36:36 23:40:12 27° 264° (W) 23:43:46 145.950 - 145.970 MHz USB
SO-50 19 Apr 23:43:09 23:46:55 24° 47° (NE) 23:50:42 436.795 FM
Sapphire 20 Apr 00:22:33 00:27:35 41° 111° (ESE) 00:32:39 437.095 MHz 1200 baud AX-25 AFSK
